Location: East Newark
(40.7484°N, 74.1618°W)
Time: 23:59:32
(UTC+00:00)

Daily predictions for brighter satellites

Satellite Brightness Start Highest point End
(mag) Time Altitude Azimuth Time Altitude Azimuth Time Altitude Azimuth
SL-4 R/B 3.5 21:52:45 10° WNW 21:55:47 23° NNW 21:58:59 10° NE
Cosmos 2242 Rocket 4.4 21:51:58 10° SSE 21:55:59 32° E 22:00:02 10° NNE
Meteor 1-5 Rocket 4.1 21:52:44 10° N 21:58:14 66° ENE 22:03:32 10° SSE
Cosmos 1707 Rocket 4.2 21:54:02 10° SSW 21:58:27 62° W 22:02:54 10° N
STARLINK-29 3.8 21:57:32 10° SSW 22:00:54 43° SE 22:04:16 10° ENE
CZ-4B R/B 3.9 21:59:52 10° S 22:05:05 58° WSW 22:10:26 10° NNW
ISS -3.7 22:03:27 10° NW 22:06:46 57° NNE 22:10:04 10° ESE
Okean-O 3.4 22:04:16 10° SE 22:08:08 30° ENE 22:11:59 10° N
Exosat Rocket 3.6 22:05:33 10° SSW 22:11:04 87° WNW 22:16:04 10° NNE
SMAP 3.1 22:08:08 10° SSE 22:12:43 62° ENE 22:17:20 10° N
Cosmos 1092 Rocket 4.3 22:08:41 10° SSE 22:14:37 44° E 22:20:30 10° NNE
STARLINK-60 3.1 22:11:26 10° SW 22:14:49 81° NW 22:17:56 12° NE
PSLV R/B 4.1 22:10:40 10° N 22:14:49 76° WNW 22:18:54 10° SSW
Aureole 1 Rocket 3.0 22:14:07 10° SSE 22:16:47 30° ESE 22:19:23 11° NE
Cosmos 2278 Rocket 2.2 22:13:33 10° NNW 22:19:14 80° ENE 22:24:53 10° SSE
Cosmos 1908 Rocket 4.0 22:16:38 10° N 22:20:44 37° ENE 22:24:47 10° SE
NOAA 12 4.3 22:17:38 10° SE 22:22:44 50° ENE 22:27:50 10° N
Cosmos 1812 3.1 22:19:15 10° SSW 22:23:05 69° W 22:26:57 10° N
OAO 3 Rocket 4.1 22:18:57 10° WSW 22:23:20 40° S 22:27:46 10° ESE
COSMO-SKYMED 1 3.5 22:21:59 10° NE 22:25:46 29° E 22:29:32 10° SSE
YAOGAN 6 3.7 22:23:19 10° ESE 22:26:08 23° ENE 22:28:58 10° NNE
Cosmos 1900 4.3 22:23:11 10° NNW 22:28:02 62° ENE 22:32:51 10° SE
AQUARIUS 4.1 22:23:58 10° SSE 22:28:28 83° ENE 22:32:59 10° N
YAOGAN 1 3.8 22:27:00 10° ESE 22:30:04 19° ENE 22:33:08 10° NNE
Cosmos 2369 Rocket 4.0 22:29:49 10° NNE 22:30:58 11° NE 22:30:58 11° NE
Cosmos 2251 Rocket 4.1 22:26:31 10° SSW 22:31:45 58° WNW 22:36:58 10° NNE
SL-16 R/B 2.7 22:26:40 10° S 22:31:54 40° ESE 22:36:41 12° NE
BREEZE-M DEB (TANK) 1.8 22:29:44 10° WNW 22:32:10 73° SW 22:34:31 10° SE
Okean 1-7 3.6 22:28:56 10° SSE 22:32:54 37° E 22:36:55 10° NNE
Cosmos 1500 4.2 22:35:35 10° NNW 22:39:14 49° W 22:42:50 10° S
Cosmos 292 Rocket 3.8 22:36:17 10° NNW 22:41:06 58° ENE 22:45:52 10° SSE
Cosmos 2333 Rocket 4.1 22:36:42 10° WSW 22:41:27 26° NW 22:46:14 10° N
BREEZE-M R/B 4.2 22:37:14 10° WNW 22:41:37 24° N 22:43:18 17° NNE
Cosmos 2237 Rocket 2.7 22:36:34 10° SW 22:42:12 63° WNW 22:47:52 10° NNE
Envisat 2.9 22:37:24 10° SSE 22:42:24 64° ENE 22:47:26 10° N
Cosmos 1733 Rocket 4.4 22:40:01 10° NNW 22:44:09 42° W 22:48:18 10° SSW
USA 215 4.3 22:40:01 10° NE 22:45:47 36° NNW 22:51:37 10° W
COBE Rocket 4.4 22:42:39 10° N 22:47:13 58° WNW 22:51:51 10° SSW
CORIOLIS 4.4 22:42:33 10° S 22:47:59 74° WSW 22:53:27 10° NNW
Cosmos 1140 Rocket 4.2 22:43:54 10° SSE 22:48:23 32° E 22:50:40 22° ENE
Cosmos 407 Rocket 3.6 22:47:00 10° S 22:51:59 52° ESE 22:55:51 17° NNE
H-2A R/B 4.0 22:50:40 10° S 22:54:11 42° W 22:57:42 10° NNW
Cosmos 2219 Rocket 4.3 22:50:55 10° W 22:55:05 21° NW 22:59:16 10° N
Cosmos 1441 Rocket 3.0 22:55:18 10° N 22:59:05 63° E 23:02:47 10° SSE
Cosmos 1553 Rocket 4.3 22:56:37 10° N 23:02:39 43° ENE 23:08:42 10° SSE
FALCON 9 DEB 4.1 23:01:57 10° WSW 23:05:16 40° NNW 23:06:25 29° NNE
Cosmos 921 Rocket 3.0 23:01:23 10° N 23:05:36 55° ENE 23:09:52 10° SSE
Cosmos 1943 Rocket 3.4 23:04:35 10° N 23:07:51 22° NE 23:07:51 22° NE
Cosmos 1867 4.1 23:07:25 10° NNW 23:12:24 35° NE 23:12:53 34° ENE
Cosmos 2026 Rocket 3.9 23:07:40 10° S 23:13:44 89° W 23:19:49 10° N
SKYMED 2 3.6 23:09:59 12° N 23:14:01 81° WNW 23:18:21 10° SSW
CSL-04 Rocket 3.6 23:09:42 10° SSE 23:14:51 57° ENE 23:20:02 10° N
Cosmos 2221 Rocket 3.8 23:10:43 10° SSE 23:14:59 45° E 23:15:14 44° E
Cosmos 1782 Rocket 3.4 23:11:06 10° N 23:15:28 85° E 23:19:48 10° S
Genesis I 3.0 23:14:05 10° NNW 23:17:58 71° ENE 23:18:28 61° ESE
Sich 1 Rocket 3.4 23:13:41 10° N 23:18:04 67° E 23:22:26 10° SSE
USA 267 3.8 23:12:19 10° SSE 23:18:44 58° SW 23:25:11 10° NW
Shenzhou-11 Module 2.9 23:18:27 10° WNW 23:20:27 43° W 23:20:27 43° W
STARLINK-43 3.5 23:17:52 10° SW 23:21:21 54° SSE 23:21:21 54° SSE
Cosmos 2297 3.6 23:17:45 10° NNW 23:23:29 81° ENE 23:29:08 10° SSE
Cosmos 1666 4.3 23:20:06 10° NNW 23:23:32 35° W 23:26:56 10° SSW
OAO 2 Rocket 4.2 23:20:21 10° WSW 23:25:04 42° S 23:26:59 29° SE
Lacrosse 5 rocket 3.7 23:25:40 10° NW 23:27:41 13° NNW 23:28:46 12° N
STARLINK-52 4.5 23:26:47 10° W 23:29:59 32° NNW 23:30:04 32° NNW
CSL-04 Debris 4.0 23:26:04 10° SSE 23:31:31 83° ENE 23:36:59 10° NNW
CZ-4 R/B 1.6 23:29:33 10° S 23:33:26 65° WSW 23:37:17 10° NNW
Cosmos 1417 Rocket 4.3 23:27:50 10° N 23:33:58 71° E 23:40:06 10° SSE
Meteor 1-18 Rocket 4.3 23:28:50 10° SSW 23:34:35 81° W 23:39:37 13° N
Okean 1 3.8 23:31:22 10° SSW 23:35:17 59° W 23:36:51 33° NNW
SL-4 R/B 4.1 23:33:48 10° NW 23:35:35 16° NNW 23:35:35 16° NNW
CZ-3B R/B 4.2 23:36:58 10° S 23:40:36 15° SE 23:41:14 15° SE
ISS -0.9 23:41:00 10° W 23:43:12 16° SW 23:45:06 11° SSW
Cosmos 1190 Rocket 4.4 23:40:31 10° SSW 23:45:39 59° WNW 23:48:06 30° N
DMSP B5D1-3 4.4 23:45:19 62° NNE 23:46:13 84° ESE 23:51:19 10° SSW
Cosmos 676 Rocket 3.8 23:42:22 10° SSW 23:47:32 86° ESE 23:47:57 76° NE
Cosmos 1655 Rocket 3.9 23:41:55 10° S 23:48:15 82° E 23:52:08 25° N
Cosmos 1743 3.8 23:46:21 10° NNW 23:50:03 44° W 23:53:43 10° SSW
Meteor 2-9 Rocket 4.1 23:46:58 10° N 23:52:52 84° E 23:58:38 10° S
Cosmos 1241 Rocket 4.3 23:47:13 10° SSW 23:53:37 81° ESE 23:54:36 65° NE
NOAA 11 4.2 23:49:01 10° SSE 23:54:28 82° WSW 23:59:58 10° NNW
